#datint,netname,site,siteID,timestamp,IntT,BattV,AirT2,AirT,AirT_Avg,AirT_Max,AirT_Min,RH_Avg,RH_Max,RH_Min,EA_Avg,Td_Avg,Td_Max,Td_Min,WindS_Smp,WindS_Avg,WindD_Avg,WindD_SD,WindS_Max,ETo,ETr,SoilT4,SoilT8,SoilVWC8,SolarW_Avg,wetstate_Avg,wetT_Avg,Precip_accum,Precip_WPG,Precip_TB
15min,AgWx,beryljct,423,10APR2018:00:00:00,42.7,13.02,41.2,39.5,41.1,42.0,39.1,37,43,35,0.347,17.1,18.4,16.5,2.061,3.4,326,46,5.0,0.00009,0.00015,52.2,52.8,22,0,0,39.1,13.27,0.00,0.00
15min,AgWx,beryljct,423,10APR2018:00:15:00,41.8,13.01,41.1,40.5,40.7,42.2,39.3,38,43,35,0.322,17.2,18.6,16.5,0.132,1.0,317,39,3.7,-0.00016,-0.00021,51.9,52.7,22,0,0,37.1,13.27,0.00,0.00
15min,AgWx,beryljct,423,10APR2018:00:30:00,40.6,13.01,38.4,37.7,38.3,40.5,36.6,43,48,38,0.343,17.5,18.9,16.7,1.71,1.1,38,54,3.7,-0.00015,-0.00019,51.7,52.7,22,0,0,35.7,13.27,0.00,0.00
15min,AgWx,beryljct,423,10APR2018:00:45:00,39.6,12.99,38.0,35.4,37.7,41.4,35.3,44,50,36,0.317,17.6,18.9,16.3,3.705,3.0,332,20,5.2,0.00003,0.00006,51.4,52.6,23,0,0,36.1,13.27,0.00,0.00
15min,AgWx,beryljct,423,10APR2018:01:00:00,38.8,13,38.2,38.7,37.5,40.7,34.6,42,47,37,0.325,16.6,17.0,16.3,3.858,4.1,319,16,6.6,0.00011,0.00016,51.2,52.6,22,0,0,36.5,13.27,0.00,0.00
15min,AgWx,beryljct,423,10APR2018:01:15:00,38.7,12.99,39.8,37.9,39.5,41.5,37.7,40,43,36,0.333,17.0,17.5,16.4,3.486,4.7,321,7.0,6.4,0.00016,0.00023,50.9,52.5,22,0,0,37.9,13.27,0.00,0.00
15min,AgWx,beryljct,423,10APR2018:01:30:00,38.5,12.98,39.5,39.5,39.0,40.0,37.6,41,43,39,0.327,17.0,17.5,16.8,4.932,3.5,311,17,5.9,0.00008,0.00013,50.7,52.4,22,0,0,36.8,13.27,0.00,0.00
15min,AgWx,beryljct,423,10APR2018:01:45:00,38.6,12.97,40.3,38.3,40.0,41.1,38.3,39,42,37,0.327,16.9,17.4,16.5,3.924,5.9,321,8.4,7.1,0.00022,0.00030,50.4,52.4,22,0,0,38.4,13.27,0.00,0.00
15min,AgWx,beryljct,423,10APR2018:02:00:00,38.6,12.96,39.6,41.0,39.0,41.6,37.3,40,43,36,0.318,16.9,17.4,16.4,2.587,4.4,333,18,6.7,0.00014,0.00020,50.2,52.3,23,0,0,37.5,13.27,0.00,0.00
15min,AgWx,beryljct,423,10APR2018:02:15:00,38.5,12.96,39.0,36.2,39.1,41.0,36.2,42,52,37,0.374,17.8,20.2,16.4,6.84,2.2,135,71,6.8,-0.00003,-0.00001,50.0,52.2,22,0,0,36.4,13.27,0.00,0.00
15min,AgWx,beryljct,423,10APR2018:02:30:00,37.7,12.94,34.7,34.2,34.5,36.0,33.7,50,55,46,0.331,17.7,20.4,16.3,3.617,4.2,173,11,7.4,0.00007,0.00012,49.8,52.1,22,0,0,35.6,13.27,0.00,0.00
15min,AgWx,beryljct,423,10APR2018:02:45:00,36.5,12.92,32.6,29.4,32.6,34.9,29.4,55,68,47,0.371,18.2,20.0,16.8,1.535,2.8,160,10,4.8,-0.00002,-0.00000,49.5,52.0,22,0,0,35.3,13.27,0.00,0.00
15min,AgWx,beryljct,423,10APR2018:03:00:00,35.2,12.92,31.1,31.3,30.5,31.8,29.2,60,68,52,0.320,18.3,20.3,16.2,4.275,2.0,165,3.5,4.3,-0.00007,-0.00008,49.3,52.0,22,0,0,35.9,13.27,0.00,0.00
15min,AgWx,beryljct,423,10APR2018:03:15:00,34.3,12.91,32.2,30.7,31.7,32.9,30.7,52,55,49,0.312,15.9,17.2,14.8,2.653,2.9,186,7.9,4.3,-0.00000,0.00002,49.1,51.9,22,0,0,35.5,13.28,0.00,0.00
15min,AgWx,beryljct,423,10APR2018:03:30:00,33.6,12.91,30.8,29.1,30.5,31.3,29.1,56,66,50,0.359,16.6,19.2,14.8,4.428,1.8,176,18,4.4,-0.00008,-0.00010,48.9,51.8,22,0,0,35.5,13.28,0.00,0.00
15min,AgWx,beryljct,423,10APR2018:03:45:00,32.9,12.74,29.0,29.2,28.5,29.2,28.1,65,68,62,0.339,18.3,19.5,17.2,5.261,4.7,146,19,6.6,0.00002,0.00004,48.6,51.7,22,0,0,35.6,13.28,0.00,0.00
15min,AgWx,beryljct,423,10APR2018:04:00:00,32.4,12.89,31.1,32.7,30.2,32.8,28.5,55,62,52,0.326,16.0,17.8,14.8,3.749,4.9,192,4.2,6.1,0.00007,0.00010,48.4,51.6,22,0,0,35.7,13.28,0.00,0.00
15min,AgWx,beryljct,423,10APR2018:04:15:00,32.5,12.87,32.4,27.6,32.4,35.0,27.6,52,61,47,0.309,16.6,17.5,15.7,4.406,3.2,212,56,4.4,0.00002,0.00004,48.2,51.5,22,0,0,35.5,13.28,0.00,0.00
15min,AgWx,beryljct,423,10APR2018:04:30:00,32.0,12.85,27.5,27.5,27.1,27.6,26.8,59,61,56,0.285,14.8,15.8,13.8,2.148,3.8,317,4.4,4.8,0.00001,0.00003,48.0,51.4,22,0,0,35.5,13.28,0.00,0.00
15min,AgWx,beryljct,423,10APR2018:04:45:00,31.3,12.84,27.6,26.1,27.2,29.1,26.0,58,63,54,0.303,14.4,15.3,14.0,3.047,0.8,19,41,3.3,-0.00015,-0.00021,47.8,51.3,22,0,0,35.5,13.28,0.00,0.00
15min,AgWx,beryljct,423,10APR2018:05:00:00,30.5,12.84,26.8,25.7,26.3,27.6,25.6,66,71,57,0.328,16.4,17.9,14.4,0,1.5,126,10,4.4,-0.00010,-0.00013,47.6,51.2,22,0,0,35.5,13.28,0.00,0.00
15min,AgWx,beryljct,423,10APR2018:05:15:00,29.8,12.82,26.7,26.2,26.1,26.3,25.6,67,71,64,0.310,16.7,17.5,15.8,0,0.1,114,0.0,1.1,-0.00021,-0.00032,47.4,51.1,22,0,0,35.7,13.28,0.00,0.00
15min,AgWx,beryljct,423,10APR2018:05:30:00,29.1,12.81,25.5,24.8,25.1,26.3,24.2,66,70,60,0.311,15.2,16.2,13.7,0.833,0.7,68,0.0,2.1,-0.00015,-0.00021,47.2,51.0,22,0,0,35.4,13.28,0.00,0.00
15min,AgWx,beryljct,423,10APR2018:05:45:00,28.4,12.8,26.5,25.7,25.8,26.4,24.8,63,68,60,0.311,14.9,16.1,14.3,0,0.3,68,0.0,1.2,-0.00019,-0.00029,47.0,50.9,22,0,0,35.6,13.28,0.00,0.00
15min,AgWx,beryljct,423,10APR2018:06:00:00,27.9,12.8,26.7,25.9,26.1,26.6,25.4,63,67,60,0.318,15.1,16.4,14.2,1.644,1.4,127,16,3.6,-0.00010,-0.00013,46.8,50.8,22,0,0,35.4,13.28,0.00,0.00
15min,AgWx,beryljct,423,10APR2018:06:15:00,27.5,12.77,24.4,23.9,24.0,25.8,23.4,69,71,67,0.301,15.3,16.9,14.7,2.916,2.8,190,12,3.8,-0.00004,-0.00004,46.6,50.7,22,0,0,35.4,13.29,0.00,0.00
15min,AgWx,beryljct,423,10APR2018:06:30:00,27.0,12.77,25.7,24.9,25.0,27.0,23.8,65,68,60,0.298,15.0,15.3,14.7,2.543,2.8,192,1.6,3.5,0.00014,0.00024,46.4,50.6,22,0,0,35.6,13.29,0.00,0.00
15min,AgWx,beryljct,423,10APR2018:06:45:00,26.8,12.76,26.2,26.1,25.5,26.1,24.9,63,65,61,0.303,14.8,15.4,14.4,1.491,1.0,195,0.8,2.6,0.00006,0.00011,46.2,50.5,22,0,0,35.8,13.28,0.00,0.00
15min,AgWx,beryljct,423,10APR2018:07:00:00,26.7,12.76,26.4,24.0,26.0,26.8,24.0,63,68,61,0.300,15.2,15.8,14.8,0.548,2.5,186,20,3.5,0.00014,0.00023,45.9,50.4,22,1,0,35.5,13.29,0.00,0.00
15min,AgWx,beryljct,423,10APR2018:07:15:00,26.5,12.76,24.6,24.9,24.0,25.0,23.4,67,69,65,0.305,14.5,15.6,13.6,1.578,1.6,168,34,3.8,0.00010,0.00016,45.7,50.3,22,5,0,35.7,13.29,0.00,0.00
15min,AgWx,beryljct,423,10APR2018:07:30:00,26.4,12.8,26.7,26.0,26.0,27.0,24.5,65,68,63,0.309,15.8,16.2,15.2,0.548,0.9,210,0.1,1.8,0.00016,0.00021,45.5,50.2,22,31,0,36.0,13.29,0.00,0.00
15min,AgWx,beryljct,423,10APR2018:07:45:00,26.5,12.84,25.8,24.9,25.4,26.6,24.5,70,75,63,0.327,16.9,17.9,15.6,0.745,0.2,206,8.1,1.1,0.00025,0.00027,45.3,50.1,22,63,0,35.9,13.29,0.00,0.00
15min,AgWx,beryljct,423,10APR2018:08:00:00,26.9,12.87,25.5,25.3,25.0,25.3,24.7,74,78,69,0.319,17.7,19.0,16.5,2.433,1.5,121,83,2.6,0.00037,0.00043,45.1,50.0,22,93,0,35.6,13.28,0.00,0.00
15min,AgWx,beryljct,423,10APR2018:08:15:00,27.8,12.9,27.8,29.2,27.0,29.2,25.3,66,69,64,0.349,17.3,18.6,16.3,3.683,2.5,321,5.2,3.7,0.00055,0.00066,45.0,49.9,22,138,0,38.4,13.29,0.00,0.00
15min,AgWx,beryljct,423,10APR2018:08:30:00,30.0,12.99,33.6,35.1,32.7,35.1,29.3,57,65,49,0.341,19.1,19.8,18.0,4.538,3.9,342,9.7,5.0,0.00090,0.00114,44.8,49.7,22,204,0,45.5,13.28,0.00,0.00
15min,AgWx,beryljct,423,10APR2018:08:45:00,33.5,13.16,38.2,39.7,37.5,39.7,35.2,46,50,41,0.345,18.8,19.8,18.0,3.573,3.7,341,8.8,5.2,0.00122,0.00154,44.7,49.6,22,250,0,52.0,13.28,0.00,0.00
15min,AgWx,beryljct,423,10APR2018:09:00:00,37.4,13.58,41.3,41.9,40.8,41.9,39.7,40,42,38,0.343,18.4,19.1,17.6,2.433,3.6,347,10,5.0,0.00163,0.00202,44.6,49.5,22,327,0,58.2,13.28,0.00,0.00
15min,AgWx,beryljct,423,10APR2018:09:15:00,41.2,14.58,43.3,43.7,42.9,44.0,42.0,36,38,35,0.337,18.1,18.9,17.4,3.003,4.0,350,11,5.6,0.00200,0.00247,44.5,49.4,22,392,0,62.7,13.28,0.00,0.00
15min,AgWx,beryljct,423,10APR2018:09:30:00,44.5,14.53,44.9,44.9,44.5,45.4,43.6,34,35,32,0.335,17.9,19.5,17.1,2.236,2.0,334,25,4.3,0.00192,0.00225,44.4,49.3,22,375,0,66.5,13.27,0.00,0.00
15min,AgWx,beryljct,423,10APR2018:09:45:00,46.7,14.49,46.0,46.7,45.6,46.7,44.9,33,35,32,0.349,18.2,19.9,17.2,0,0.8,58,20,2.8,0.00167,0.00187,44.5,49.2,22,318,0,66.2,13.27,0.00,0.00
15min,AgWx,beryljct,423,10APR2018:10:00:00,48.6,14.47,47.0,47.1,46.7,48.1,46.0,34,36,32,0.365,19.5,22.1,18.3,0,0.4,64,25,2.0,0.00222,0.00241,44.5,49.1,22,442,0,74.1,13.27,0.00,0.00
15min,AgWx,beryljct,423,10APR2018:10:15:00,50.3,14.45,47.7,48.5,47.4,48.5,46.7,34,36,33,0.412,20.3,22.5,19.0,2.324,1.3,116,46,3.3,0.00218,0.00247,44.6,49.0,22,406,0,71.7,13.27,0.00,0.00
15min,AgWx,beryljct,423,10APR2018:10:30:00,51.5,14.43,48.5,48.8,48.3,49.0,47.7,33,36,32,0.388,20.6,22.7,19.9,1.074,1.1,96,9.7,3.7,0.00234,0.00262,44.8,48.9,22,434,0,73.5,13.27,0.00,0.00
15min,AgWx,beryljct,423,10APR2018:10:45:00,52.6,14.42,49.7,49.9,49.4,50.2,48.8,33,35,32,0.411,21.4,23.5,20.4,3.486,2.2,96,14,4.6,0.00238,0.00277,45.0,48.8,22,411,0,71.5,13.26,0.00,0.00
15min,AgWx,beryljct,423,10APR2018:11:00:00,53.7,14.41,51.1,51.5,50.8,51.6,49.9,31,35,28,0.375,21.3,23.3,19.3,0,1.5,79,27,3.5,0.00293,0.00331,45.3,48.7,22,527,0,76.4,13.26,0.00,0.00
15min,AgWx,beryljct,423,10APR2018:11:15:00,55.5,14.37,52.4,52.3,52.2,53.0,51.5,30,32,29,0.387,21.9,23.7,20.5,1.622,0.7,74,6.1,2.9,0.00267,0.00294,45.5,48.6,22,468,0,80.5,13.26,0.00,0.00
15min,AgWx,beryljct,423,10APR2018:11:30:00,56.8,14.3,53.1,53.2,52.9,53.9,52.0,29,31,28,0.406,21.5,23.4,20.5,2.411,1.1,99,13,3.2,0.00283,0.00315,45.8,48.6,22,488,0,80.3,13.25,0.00,0.00
15min,AgWx,beryljct,423,10APR2018:11:45:00,58.7,14.24,54.7,54.6,54.5,55.5,53.1,28,31,24,0.397,21.8,24.4,18.4,0.702,1.8,106,21,4.0,0.00373,0.00420,46.1,48.5,22,644,0,86.9,13.25,0.00,0.00
15min,AgWx,beryljct,423,10APR2018:12:00:00,60.2,13.84,55.7,56.3,55.4,56.7,54.6,28,30,27,0.455,23.0,25.6,21.3,2.192,1.4,66,19,3.4,0.00273,0.00310,46.5,48.5,22,441,0,80.1,13.25,0.00,0.00
15min,AgWx,beryljct,423,10APR2018:12:15:00,60.9,13.79,56.5,56.8,56.4,57.0,55.9,27,30,25,0.417,23.1,26.2,20.7,2.28,2.2,102,21,4.3,0.00286,0.00334,46.9,48.5,22,441,0,78.2,13.25,0.00,0.00
15min,AgWx,beryljct,423,10APR2018:12:30:00,61.6,13.82,57.6,57.6,57.5,58.0,56.9,26,28,24,0.404,22.4,24.3,21.0,1.425,1.6,122,13,3.5,0.00287,0.00329,47.2,48.5,22,446,0,80.6,13.25,0.00,0.00
15min,AgWx,beryljct,423,10APR2018:12:45:00,62.3,13.8,59.3,59.7,59.0,60.2,57.5,25,27,24,0.416,23.2,24.8,21.9,0.702,0.9,189,61,2.7,0.00290,0.00323,47.6,48.5,22,456,0,82.9,13.25,0.00,0.00
15min,AgWx,beryljct,423,10APR2018:13:00:00,63.2,13.84,60.7,61.1,60.6,61.2,59.7,24,27,23,0.477,24.1,27.1,22.4,3.354,2.0,157,40,4.0,0.00330,0.00380,48.0,48.5,22,499,0,84.3,13.24,0.00,0.00
15min,AgWx,beryljct,423,10APR2018:13:15:00,64.1,13.8,61.9,62.0,61.8,62.5,60.7,25,28,23,0.466,25.4,27.6,23.4,1.556,2.9,119,16,4.9,0.00347,0.00413,48.4,48.5,22,501,0,82.6,13.24,0.00,0.00
15min,AgWx,beryljct,423,10APR2018:13:30:00,65.3,13.76,64.4,66.0,64.1,66.0,62.0,24,26,22,0.511,26.5,29.1,24.3,5.809,4.6,120,17,8.2,0.00505,0.00605,48.7,48.5,22,762,0,87.8,13.24,0.00,0.00
15min,AgWx,beryljct,423,10APR2018:13:45:00,67.1,13.74,66.8,67.3,66.7,67.4,65.4,22,25,19,0.479,26.2,29.4,22.7,7.717,8.4,139,12,14.8,0.00558,0.00713,49.1,48.6,22,766,0,84.2,13.24,0.00,0.00
15min,AgWx,beryljct,423,10APR2018:14:00:00,68.9,13.67,69.0,69.6,68.9,70.4,67.4,18,24,14,0.378,22.9,30.4,17.0,8.46,8.6,182,23,12.7,0.00637,0.00810,49.5,48.6,22,887,0,88.1,13.24,0.00,0.00
15min,AgWx,beryljct,423,10APR2018:14:15:00,70.7,13.63,69.7,69.9,69.7,71.0,68.8,15,18,13,0.344,20.1,24.8,16.3,12.43,11.0,177,17,16.0,0.00657,0.00866,49.9,48.7,22,862,0,86.5,13.24,0.00,0.00
15min,AgWx,beryljct,423,10APR2018:14:30:00,72.1,13.62,70.6,70.9,70.6,72.5,69.6,14,16,9.8,0.264,19.1,22.1,11.3,8.44,10.5,181,16,15.3,0.00661,0.00870,50.4,48.7,22,860,0,86.5,13.24,0.00,0.00
15min,AgWx,beryljct,423,10APR2018:14:45:00,73.2,13.6,71.1,71.3,71.1,72.5,70.2,11,14,9.8,0.265,14.1,20.2,10.7,10.59,10.7,183,15,15.0,0.00667,0.00884,50.8,48.8,22,854,0,86.7,13.24,0.00,0.00
15min,AgWx,beryljct,423,10APR2018:15:00:00,74.0,13.61,71.4,71.3,71.5,72.6,70.6,11,13,9.1,0.277,13.6,17.5,9.3,12.58,10.8,181,16,15.2,0.00605,0.00822,51.3,48.9,22,723,0,84.6,13.24,0.00,0.00
15min,AgWx,beryljct,423,10APR2018:15:15:00,74.4,13.61,72.1,72.9,72.0,73.2,70.7,11,13,9.2,0.341,13.9,18.9,10.2,7.497,11.4,182,11,15.9,0.00672,0.00903,51.8,49.0,22,832,0,84.6,13.24,0.00,0.00
15min,AgWx,beryljct,423,10APR2018:15:30:00,75.1,13.55,72.5,72.3,72.5,73.6,71.8,11,13,9.1,0.272,14.3,20.3,10.3,7.936,8.9,177,18,14.5,0.00608,0.00803,52.2,49.1,22,769,0,86.1,13.24,0.00,0.00
15min,AgWx,beryljct,423,10APR2018:15:45:00,75.8,13.53,72.9,73.2,73.0,74.2,72.1,9.8,12,8.8,0.262,12.8,17.4,9.7,9.78,8.9,185,14,15.2,0.00628,0.00827,52.7,49.2,22,796,0,86.3,13.24,0.00,0.00
15min,AgWx,beryljct,423,10APR2018:16:00:00,76.4,13.63,73.9,73.6,73.9,74.7,73.1,9.9,11,8.7,0.245,13.6,16.6,10.5,9.82,12.7,187,15,18.3,0.00653,0.00906,53.0,49.3,22,741,0,84.0,13.24,0.00,0.00
15min,AgWx,beryljct,423,10APR2018:16:15:00,76.7,13.53,73.5,73.1,73.6,74.3,73.1,9.7,11,8.8,0.274,12.9,15.7,10.7,14.14,12.7,188,12,18.0,0.00631,0.00882,53.3,49.5,22,708,0,82.6,13.24,0.00,0.00
15min,AgWx,beryljct,423,10APR2018:16:30:00,76.6,13.52,73.3,73.4,73.4,74.2,72.6,9.9,12,9.0,0.300,13.3,16.9,11.4,15.41,13.2,181,13,18.3,0.00604,0.00860,53.5,49.6,22,656,0,80.9,13.24,0.00,0.00
15min,AgWx,beryljct,423,10APR2018:16:45:00,76.6,13.55,73.5,73.9,73.5,74.4,72.8,9.9,11,9.2,0.317,13.4,16.8,11.6,10.61,13.8,188,15,19.3,0.00605,0.00868,53.7,49.8,22,640,0,80.2,13.24,0.00,0.00
15min,AgWx,beryljct,423,10APR2018:17:00:00,76.4,13.53,73.4,73.3,73.6,74.5,72.9,9.8,12,8.6,0.265,13.2,17.8,10.1,14.67,13.4,194,16,19.9,0.00580,0.00837,53.9,49.9,22,607,0,79.4,13.24,0.00,0.00
15min,AgWx,beryljct,423,10APR2018:17:15:00,76.2,13.54,73.0,72.6,73.1,73.5,72.6,9.7,11,8.8,0.265,12.6,15.0,10.3,15.52,14.0,191,11,23.7,0.00560,0.00821,54.1,50.0,22,561,0,77.8,13.24,0.00,0.00
15min,AgWx,beryljct,423,10APR2018:17:30:00,75.9,13.56,72.6,72.5,72.6,73.3,72.2,10,12,9.3,0.278,13.8,16.2,11.4,17.54,14.5,174,12,21.3,0.00534,0.00796,54.3,50.2,22,511,0,76.3,13.24,0.00,0.00
15min,AgWx,beryljct,423,10APR2018:17:45:00,75.4,13.57,72.5,72.4,72.5,73.1,71.9,10,12,9.3,0.301,13.3,16.7,11.1,13.15,14.6,180,11,19.9,0.00505,0.00767,54.6,50.3,22,457,0,75.4,13.24,0.00,0.00
15min,AgWx,beryljct,423,10APR2018:18:00:00,74.9,13.57,72.1,72.5,72.1,72.6,71.8,10,12,9.4,0.274,13.6,16.2,11.4,10.74,13.9,184,13,18.5,0.00458,0.00707,54.8,50.4,22,398,0,74.3,13.24,0.00,0.00
15min,AgWx,beryljct,423,10APR2018:18:15:00,74.3,13.61,71.9,71.8,71.9,72.6,71.6,9.5,11,8.9,0.251,11.3,14.0,9.5,15.26,14.5,204,8.9,19.9,0.00456,0.00713,55.0,50.6,22,375,0,73.8,13.24,0.00,0.00
15min,AgWx,beryljct,423,10APR2018:18:30:00,73.7,13.59,71.4,71.5,71.4,71.9,71.0,11,13,9.2,0.288,14.2,17.1,10.3,14.73,12.3,187,10,17.0,0.00368,0.00589,55.2,50.7,22,289,0,72.9,13.24,0.00,0.00
15min,AgWx,beryljct,423,10APR2018:18:45:00,73.0,13.59,71.0,70.6,71.0,71.7,70.5,11,12,10,0.289,14.5,17.0,12.2,14.78,12.3,191,9.5,18.9,0.00327,0.00544,55.3,50.8,22,222,0,72.3,13.24,0.00,0.00
15min,AgWx,beryljct,423,10APR2018:19:00:00,72.0,13.46,70.0,69.6,70.0,70.6,69.6,11,13,10,0.262,13.7,16.8,11.4,15.63,13.5,195,9.2,20.5,0.00305,0.00531,55.5,51.0,22,156,0,70.2,13.24,0.00,0.00
15min,AgWx,beryljct,423,10APR2018:19:15:00,70.7,13.39,69.2,69.0,69.2,69.8,68.8,11,12,10,0.255,12.3,13.7,10.6,13.83,12.5,195,7.4,16.2,0.00152,0.00189,55.5,51.1,22,98,0,68.8,13.24,0.00,0.00
15min,AgWx,beryljct,423,10APR2018:19:30:00,69.5,13.28,68.5,68.1,68.6,68.9,68.1,10,11,9.7,0.259,10.7,12.5,9.2,13.75,13.6,197,6.7,18.3,0.00153,0.00187,55.6,51.3,23,72,0,67.6,13.25,0.00,0.00
15min,AgWx,beryljct,423,10APR2018:19:45:00,68.4,13.24,67.2,66.1,67.3,68.2,66.1,12,13,11,0.285,12.6,14.3,10.6,7.673,11.1,195,6.8,17.3,0.00125,0.00158,55.6,51.4,22,30,0,65.7,13.25,0.00,0.00
15min,AgWx,beryljct,423,10APR2018:20:00:00,66.7,13.19,64.2,63.0,64.4,66.0,63.0,16,19,13,0.372,16.9,20.4,13.8,4.231,6.6,176,14,10.0,0.00073,0.00100,55.6,51.5,22,12,0,62.5,13.25,0.00,0.00
15min,AgWx,beryljct,423,10APR2018:20:15:00,65.0,13.17,63.9,63.5,63.7,64.7,62.3,15,19,13,0.280,15.7,20.5,12.7,5.152,6.2,185,11,9.3,0.00065,0.00091,55.5,51.6,23,2,0,61.3,13.25,0.00,0.00
15min,AgWx,beryljct,423,10APR2018:20:30:00,63.8,13.14,63.2,62.7,63.1,63.7,62.4,14,15,13,0.288,13.2,14.5,11.0,7.651,7.5,212,9.2,11.4,0.00078,0.00105,55.5,51.7,22,0,0,60.5,13.25,0.00,0.00
15min,AgWx,beryljct,423,10APR2018:20:45:00,62.9,13.14,62.5,62.4,62.3,62.7,62.0,15,16,15,0.288,14.6,15.3,13.8,9.05,8.5,207,5.2,10.5,0.00083,0.00109,55.3,51.8,22,0,0,59.6,13.25,0.00,0.00
15min,AgWx,beryljct,423,10APR2018:21:00:00,62.4,13.13,62.7,63.0,62.5,63.0,62.3,15,15,14,0.270,13.9,14.9,12.4,11.99,9.3,210,6.0,14.1,0.00090,0.00117,55.2,51.9,22,0,0,60.6,13.25,0.00,0.00
15min,AgWx,beryljct,423,10APR2018:21:15:00,62.5,13.12,63.4,63.4,63.2,63.6,62.9,14,14,13,0.258,12.7,13.7,11.7,13.55,11.8,209,5.9,15.3,0.00110,0.00137,55.1,52.0,22,0,0,61.7,13.25,0.00,0.00
15min,AgWx,beryljct,423,10APR2018:21:30:00,62.9,13.11,63.9,64.3,63.7,64.3,63.3,13,14,13,0.272,12.6,13.3,11.8,12.87,11.8,206,7.7,16.2,0.00111,0.00139,54.9,52.1,22,0,0,62.3,13.25,0.00,0.00
15min,AgWx,beryljct,423,10APR2018:21:45:00,62.9,13.11,63.0,62.2,63.1,64.3,62.2,14,15,13,0.288,13.7,14.6,12.9,8.64,9.8,200,5.5,11.7,0.00096,0.00123,54.8,52.2,22,0,0,61.4,13.25,0.00,0.00
15min,AgWx,beryljct,423,10APR2018:22:00:00,62.6,13.1,62.4,62.9,62.2,62.9,61.8,15,16,14,0.285,14.3,15.0,13.7,9.03,9.4,200,5.5,11.3,0.00090,0.00116,54.6,52.2,22,0,0,60.9,13.25,0.00,0.00
15min,AgWx,beryljct,423,10APR2018:22:15:00,62.4,13.08,61.6,61.2,61.6,63.0,61.2,16,17,15,0.312,15.0,16.0,14.2,7.081,8.6,196,6.1,10.5,0.00083,0.00108,54.5,52.3,22,0,0,60.5,13.25,0.00,0.00
15min,AgWx,beryljct,423,10APR2018:22:30:00,61.8,13.07,60.2,59.6,60.2,61.2,59.6,17,18,17,0.310,15.9,16.8,15.1,6.467,6.5,197,7.3,8.6,0.00061,0.00084,54.3,52.3,22,0,0,59.1,13.25,0.00,0.00
15min,AgWx,beryljct,423,10APR2018:22:45:00,61.0,13.08,59.7,61.0,59.4,61.0,58.6,18,19,16,0.290,16.1,17.1,14.3,4.275,5.1,189,5.2,7.0,0.00046,0.00066,54.2,52.4,22,0,0,58.3,13.25,0.00,0.00
15min,AgWx,beryljct,423,10APR2018:23:00:00,60.6,13.08,60.4,58.9,60.5,62.0,58.6,19,25,15,0.391,18.3,22.8,13.9,6.862,5.4,164,18,8.2,0.00048,0.00069,54.1,52.4,22,0,0,59.5,13.25,0.00,0.00
15min,AgWx,beryljct,423,10APR2018:23:15:00,60.2,13.06,59.7,59.9,59.4,60.3,58.8,22,24,20,0.365,20.3,21.7,18.7,4.713,5.9,155,5.3,7.5,0.00051,0.00071,54.0,52.4,22,0,0,58.6,13.25,0.00,0.00
15min,AgWx,beryljct,423,10APR2018:23:30:00,59.8,13.07,60.0,59.3,59.9,61.4,58.1,20,23,17,0.320,18.7,20.9,16.3,2.236,2.9,196,55,5.4,0.00016,0.00028,53.9,52.4,22,0,0,58.4,13.25,0.00,0.00
15min,AgWx,beryljct,423,10APR2018:23:45:00,59.1,13.05,59.3,58.7,59.2,62.3,56.5,20,26,16,0.383,18.1,23.0,14.3,2.455,2.8,311,18,4.5,0.00014,0.00026,53.8,52.4,22,0,0,56.7,13.26,0.00,0.00
15min,AgWx,beryljct,423,11APR2018:00:00:00,58.3,13.06,56.9,57.0,56.9,58.4,55.9,24,28,22,0.387,20.4,23.7,18.2,1.535,0.8,225,25,3.2,-0.00026,-0.00037,53.6,52.4,22,0,0,54.9,13.25,0.00,0.00
15min,AgWx,beryljct,423,11APR2018:00:15:00,57.5,13.04,56.1,54.8,56.2,60.7,54.3,25,30,16,0.409,20.5,23.4,14.7,1.403,1.9,218,18,3.3,-0.00003,0.00001,53.5,52.5,22,0,0,53.8,13.26,0.00,0.00
15min,AgWx,beryljct,423,11APR2018:00:30:00,56.8,13.05,55.3,55.2,55.0,57.9,52.8,27,34,20,0.358,21.7,25.0,16.9,4.472,3.3,243,34,6.0,0.00017,0.00027,53.4,52.5,22,0,0,54.4,13.26,0.00,0.00
15min,AgWx,bigpiney,439,10APR2018:00:00:00,28.0,12.78,22.2,22.5,25.9,30.5,22.4,71,80,64,0.313,17.7,21.0,14.2,5.963,4.6,234,6.9,6.2,-0.00001,0.00000,32.5,31.9,18,0,0,0.0,.,0.00,0.00
15min,AgWx,bigpiney,439,10APR2018:00:15:00,27.4,12.78,21.8,21.5,23.0,28.1,19.7,77,84,68,0.324,16.8,20.6,14.2,1.447,4.1,255,25,6.4,-0.00003,-0.00003,32.4,31.9,18,0,0,0.0,.,0.00,0.00
15min,AgWx,bigpiney,439,10APR2018:00:30:00,26.8,12.76,20.2,19.8,21.1,22.2,19.7,81,85,77,0.311,16.3,17.4,14.3,2.236,2.2,255,21,3.7,-0.00009,-0.00011,32.3,32.0,18,0,0,0.0,.,0.00,0.00
15min,AgWx,bigpiney,439,10APR2018:00:45:00,26.3,12.76,22.8,23.3,21.1,23.5,18.8,84,87,79,0.335,16.9,19.0,14.5,3.354,2.6,269,28,3.7,-0.00008,-0.00010,32.3,31.9,18,0,0,0.0,.,0.00,0.00
15min,AgWx,bigpiney,439,10APR2018:01:00:00,25.9,12.75,20.5,20.2,21.0,23.1,19.5,82,86,76,0.316,16.3,17.7,13.3,2.477,3.1,249,31,4.2,-0.00007,-0.00007,32.2,31.9,18,0,0,0.0,.,0.00,0.00
15min,AgWx,bigpiney,439,10APR2018:01:15:00,25.6,12.73,21.1,20.9,21.5,24.1,19.7,83,86,77,0.326,17.0,19.2,15.3,1.096,2.5,304,33,3.7,-0.00008,-0.00010,32.2,32.0,18,0,0,0.0,.,0.00,0.00
15min,AgWx,bigpiney,439,10APR2018:01:30:00,25.3,12.72,24.0,22.0,21.6,23.0,20.8,84,86,79,0.340,17.5,18.7,15.5,1.271,1.0,294,33,2.9,-0.00014,-0.00019,32.1,31.9,18,0,0,0.0,.,0.00,0.00
15min,AgWx,bigpiney,439,10APR2018:01:45:00,24.9,12.72,20.8,22.0,22.4,24.0,20.4,82,86,76,0.306,17.6,18.8,14.7,3.113,2.3,275,40,4.2,-0.00009,-0.00011,32.1,32.0,18,0,0,0.0,.,0.00,0.00
15min,AgWx,bigpiney,439,10APR2018:02:00:00,24.7,12.71,19.5,19.0,20.4,21.8,17.9,82,87,76,0.287,15.9,17.3,12.6,2.346,2.0,261,47,3.7,-0.00010,-0.00012,32.1,31.9,18,0,0,0.0,.,0.00,0.00
15min,AgWx,bigpiney,439,10APR2018:02:15:00,24.4,12.7,21.1,22.1,22.2,23.6,18.9,81,87,77,0.315,17.3,18.6,14.1,1.885,1.8,223,7.7,5.3,-0.00010,-0.00013,32.0,32.0,18,0,0,0.0,.,0.00,0.00
15min,AgWx,bigpiney,439,10APR2018:02:30:00,24.0,12.69,18.2,18.0,19.7,21.8,18.0,83,86,77,0.288,15.4,17.1,13.6,4.867,4.2,214,8.6,6.3,-0.00005,-0.00005,32.0,31.9,18,0,0,0.0,.,0.00,0.00
15min,AgWx,bigpiney,439,10APR2018:02:45:00,23.6,12.67,18.8,18.0,17.7,18.0,17.6,86,87,85,0.295,14.2,14.7,14.0,4.253,4.7,223,6.9,5.5,-0.00004,-0.00004,32.0,31.9,18,0,0,0.0,.,0.00,0.00
15min,AgWx,bigpiney,439,10APR2018:03:00:00,23.2,12.66,20.2,19.5,18.4,19.5,17.8,86,88,84,0.313,14.9,16.2,13.8,3.683,4.6,236,4.4,6.0,-0.00004,-0.00005,32.0,31.9,18,0,0,0.0,.,0.00,0.00
15min,AgWx,bigpiney,439,10APR2018:03:15:00,23.0,12.66,18.6,18.9,19.7,20.4,18.7,85,87,84,0.302,15.9,16.7,14.6,3.727,4.1,222,9.1,4.9,-0.00005,-0.00006,31.9,31.9,18,0,0,0.0,.,0.00,0.00
15min,AgWx,bigpiney,439,10APR2018:03:30:00,22.9,12.64,18.5,18.4,18.3,18.9,17.7,86,87,85,0.298,14.8,15.3,14.1,5.152,4.3,219,4.4,5.2,-0.00005,-0.00005,31.9,31.9,18,0,0,0.0,.,0.00,0.00
15min,AgWx,bigpiney,439,10APR2018:03:45:00,22.5,12.63,20.3,19.0,18.9,20.5,16.7,85,87,79,0.295,15.0,16.5,12.6,1.82,3.2,274,24,5.3,-0.00007,-0.00007,31.9,31.9,18,0,0,0.0,.,0.00,0.00
15min,AgWx,bigpiney,439,10APR2018:04:00:00,22.2,12.61,17.4,17.0,18.8,20.2,16.7,84,87,80,0.281,14.7,16.9,11.7,3.573,2.8,241,28,5.1,-0.00007,-0.00009,31.9,31.9,18,0,0,0.0,.,0.00,0.00
15min,AgWx,bigpiney,439,10APR2018:04:15:00,21.8,12.61,18.3,17.8,17.9,18.4,17.0,87,88,86,0.290,14.6,15.3,13.6,4.801,3.8,219,7.5,4.9,-0.00006,-0.00006,31.9,31.9,18,0,0,0.0,.,0.00,0.00
15min,AgWx,bigpiney,439,10APR2018:04:30:00,21.5,12.58,16.3,15.9,17.6,18.2,15.9,86,88,84,0.262,14.2,15.0,11.9,4.406,4.0,231,10,5.7,-0.00005,-0.00006,31.8,31.9,18,0,0,0.0,.,0.00,0.00
15min,AgWx,bigpiney,439,10APR2018:04:45:00,21.3,12.57,21.0,20.2,18.3,20.2,16.0,86,89,83,0.315,14.8,16.7,12.1,2.148,3.2,245,22,4.7,-0.00007,-0.00008,31.8,31.9,18,0,0,0.0,.,0.00,0.00
15min,AgWx,bigpiney,439,10APR2018:05:00:00,21.1,12.57,20.5,19.8,19.5,20.4,18.2,85,87,80,0.319,15.7,16.6,13.3,0.723,1.3,270,5.2,2.7,-0.00012,-0.00016,31.8,31.9,18,0,0,0.0,.,0.00,0.00
15min,AgWx,bigpiney,439,10APR2018:05:15:00,20.9,12.55,19.1,18.9,19.6,21.1,18.3,86,88,82,0.300,15.9,17.5,14.1,2.981,1.8,214,12,3.6,-0.00011,-0.00013,31.8,32.0,18,0,0,0.0,.,0.00,0.00
15min,AgWx,bigpiney,439,10APR2018:05:30:00,20.7,12.54,17.6,16.7,16.7,18.9,15.7,85,89,83,0.275,13.0,15.1,11.8,1.907,2.1,201,6.9,3.7,-0.00009,-0.00010,31.8,31.9,18,0,0,0.0,.,0.00,0.00
15min,AgWx,bigpiney,439,10APR2018:05:45:00,20.3,12.52,21.5,20.6,17.7,20.6,15.0,88,92,85,0.329,14.6,17.2,11.4,1.162,2.8,239,19,4.9,-0.00008,-0.00009,31.8,31.9,18,0,0,0.0,.,0.00,0.00
15min,AgWx,bigpiney,439,10APR2018:06:00:00,20.0,12.51,20.2,19.9,20.3,20.8,19.9,86,87,86,0.322,16.8,17.3,16.6,1.556,1.1,289,1.2,1.9,-0.00013,-0.00018,31.8,31.9,18,0,0,0.0,.,0.00,0.00
15min,AgWx,bigpiney,439,10APR2018:06:15:00,20.0,12.48,21.2,20.7,20.1,20.7,19.8,87,88,86,0.334,16.8,17.5,16.5,2.85,2.0,305,13,2.9,-0.00010,-0.00013,31.8,31.8,18,0,0,0.0,.,0.00,0.00
15min,AgWx,bigpiney,439,10APR2018:06:30:00,20.3,12.47,21.0,20.7,20.5,20.7,20.2,87,87,86,0.332,17.1,17.4,16.7,2.565,2.5,288,3.9,3.1,-0.00009,-0.00011,31.8,31.9,18,0,0,0.0,.,0.00,0.00
15min,AgWx,bigpiney,439,10APR2018:06:45:00,20.4,12.47,19.8,19.6,19.8,20.8,18.2,87,89,82,0.322,16.4,17.4,13.6,1.754,2.0,261,15,3.0,-0.00010,-0.00012,31.8,31.9,18,1,0,0.0,.,0.00,0.00